Regional Weather Roundup
Issued by NWS Memphis, TN

Home | Current Version | Previous Version | Text Only | Print | Product List | Glossary On
Versions: 1 2 3 4 5 6 7 8 9 10 11 12 13 14 15 16 17 18 19 20 21 22 23 24 25 26 27 28 29 30 31 32 33 34 35 36 37 38 39 40 41 42 43 44 45 46 47 48 49 50
000
ASUS44 KMEG 031000
RWRMEG
MEMPHIS CWA HOURLY WEATHER ROUNDUP
NATIONAL WEATHER SERVICE MEMPHIS TN
500 AM CDT TUE MAY 03 2016

...WEST TENNESSEE...

CITY           SKY/WX    TMP DP  RH WIND       PRES   REMARKS
MEMPHIS INTL   PTCLDY    56  50  80 N6        29.98S
NWS MEMPHIS      N/A     55 N/A N/A MISG        N/A
JACKSON        CLOUDY    56  50  80 N7        29.97S
LEXINGTON      CLOUDY    54  54 100 CALM      29.94F
DYERSBURG      CLOUDY    55  52  88 N5          N/A
UNION CITY     CLOUDY    55  52  88 N6        29.97S


...EASTERN ARKANSAS...

CITY           SKY/WX    TMP DP  RH WIND       PRES   REMARKS
JONESBORO      CLOUDY    56  50  80 NW3       30.01R
WEST MEMPHIS   CLEAR     54  52  93 N6        29.98R
BATESVILLE     CLOUDY    54  46  76 NW3       30.03S
WALNUT RIDGE   CLOUDY    54  46  76 N8        30.01S
BLYTHEVILLE    CLOUDY    56  52  86 N6        30.00R
SEARCY         CLOUDY    54  49  83 NW3       30.03S
STUTTGART      CLEAR     55  48  76 N8        30.01S
PINE BLUFF     MOCLDY    56  51  84 N7        30.00F
MONTICELLO     CLOUDY    58  54  86 CALM      29.99S


...NORTH MISSISSIPPI...

CITY           SKY/WX    TMP DP  RH WIND       PRES   REMARKS
TUPELO         PTCLDY    58  54  86 NW3       29.95R
OLIVE BRANCH   PTCLDY    54  54 100 N5        29.98S
TUNICA         CLEAR     54  52  94 N6        30.00R
GREENWOOD      PTCLDY    58  56  93 NW3       29.97R
COLUMBUS       CLOUDY    60  59  94 NW7       29.93S
STARKVILLE     FAIR      59  59 100 CALM      29.94S
GOLDEN TRIANGL CLOUDY    61  57  88 NW6       29.94S


...SOUTHEAST MISSOURI...

CITY           SKY/WX    TMP DP  RH WIND       PRES   REMARKS
KENNETT        CLOUDY    57  54  88 NW5       29.99S
WEST PLAINS    CLOUDY    50  45  83 N3        30.04S
POPLAR BLUFF   CLOUDY    54  48  80 NW3       30.00S
CAPE GIRARDEAU CLOUDY    54  49  83 NW7       29.99S


...NORTHWEST ALABAMA...

CITY           SKY/WX    TMP DP  RH WIND       PRES   REMARKS
MUSCLE SHOALS  PTCLDY    59  55  87 CALM      29.94F


...MIDDLE TENNESSEE...

CITY           SKY/WX    TMP DP  RH WIND       PRES   REMARKS
NASHVILLE      CLOUDY    57  50  77 CALM      29.94F
CLARKSVILLE    CLOUDY    53  49  86 NW7       29.96S
COLUMBIA       MOCLDY   N/A N/A N/A N3        29.93F


...WESTERN KENTUCKY...

CITY           SKY/WX    TMP DP  RH WIND       PRES   REMARKS
PADUCAH        PTCLDY    53  49  86 CALM      29.98R


...CENTRAL ARKANSAS...

CITY           SKY/WX    TMP DP  RH WIND       PRES   REMARKS
LITTLE ROCK    CLOUDY    57  49  74 NW9       30.02F


SKY/WX REPORTED AS FAIR MEANS FEW OR NO CLOUDS BELOW
12 THOUSAND FEET.





USA.gov is the U.S. government's official web portal to all federal, state and local government web resources and services.